EST,Max TemperatureF,Mean TemperatureF,Min TemperatureF,Max Dew PointF,MeanDew PointF,Min DewpointF,Max Humidity, Mean Humidity, Min Humidity, Max Sea Level PressureIn, Mean Sea Level PressureIn, Min Sea Level PressureIn, Max VisibilityMiles, Mean VisibilityMiles, Min VisibilityMiles, Max Wind SpeedMPH, Mean Wind SpeedMPH, Max Gust SpeedMPH,PrecipitationIn, CloudCover, Events, WindDirDegrees
2012-11-1,54,47,40,35,31,28,67,56,45,29.77,29.71,29.67,10,10,10,12,4,18,0.00,6,,228
2012-11-2,55,46,37,29,26,23,64,47,29,29.94,29.83,29.76,10,10,10,14,6,23,0.00,3,,277
2012-11-3,52,46,40,31,29,27,64,53,41,30.09,30.04,29.96,10,10,10,15,6,21,0.00,5,,344
2012-11-4,53,45,37,34,31,28,70,56,41,30.09,30.05,29.99,10,10,10,7,1,55,0.00,5,,358
2012-11-5,52,40,27,27,26,25,92,65,38,30.17,30.10,30.05,10,10,10,13,4,20,0.00,0,,24
2012-11-6,45,36,27,28,26,24,85,65,45,30.21,30.11,29.99,10,10,10,8,2,13,0.00,2,,59
2012-11-7,47,42,37,29,27,23,70,56,41,29.99,29.92,29.87,10,10,10,14,5,18,0.00,7,,28
2012-11-8,58,47,36,28,14,7,70,43,15,30.09,29.99,29.92,10,10,10,17,7,28,0.00,0,,327
2012-11-9,62,49,36,32,28,20,70,51,32,30.22,30.18,30.09,10,10,10,12,2,18,0.00,0,,229
2012-11-10,67,49,31,35,33,31,89,59,28,30.35,30.29,30.21,10,10,8,7,1,8,0.00,0,,34
2012-11-11,73,54,35,44,37,34,85,55,25,30.45,30.39,30.34,10,10,8,18,5,23,0.00,0,,188
2012-11-12,67,58,48,59,53,45,90,78,66,30.39,30.27,30.11,10,9,2,15,7,21,0.03,4,Rain,188
2012-11-13,61,47,33,59,37,24,93,66,39,30.49,30.31,30.12,10,8,2,15,6,21,0.43,5,Rain,337
2012-11-14,46,37,27,28,26,23,85,67,49,30.55,30.49,30.45,10,10,10,14,3,18,0.00,0,,48
2012-11-15,49,39,29,35,30,26,92,74,56,30.42,30.35,30.30,10,10,10,7,1,18,0.00,5,,20
2012-11-16,54,44,34,36,31,27,92,65,38,30.45,30.35,30.29,10,10,10,9,2,12,0.00,2,,27
2012-11-17,55,42,29,28,26,22,85,57,28,30.59,30.54,30.45,10,10,10,16,5,21,0.00,0,,31
2012-11-18,53,46,39,38,34,28,71,63,54,30.58,30.53,30.48,10,10,10,15,8,21,0.00,5,,31
2012-11-19,55,47,39,39,37,35,79,67,54,30.46,30.35,30.22,10,10,10,15,6,17,0.00,5,,33
2012-11-20,54,43,32,39,36,31,100,77,54,30.20,30.15,30.08,10,10,7,8,2,14,0.00,1,,16
2012-11-21,57,44,30,39,32,26,100,71,41,30.22,30.17,30.13,10,7,2,10,3,24,0.00,0,,27
2012-11-22,60,44,27,33,28,23,92,59,26,30.27,30.21,30.15,10,10,10,10,2,16,0.00,0,,350
2012-11-23,66,47,28,41,31,24,85,60,34,30.14,29.93,29.78,10,10,10,15,6,24,0.00,1,,224
2012-11-24,48,39,30,24,17,14,49,40,31,30.09,29.99,29.86,10,9,9,14,7,22,T,2,Snow,328
2012-11-25,46,37,28,19,17,15,63,47,31,30.09,30.01,29.94,10,10,10,15,6,21,0.00,0,,200
2012-11-26,61,46,31,29,24,19,72,49,25,30.18,30.12,29.99,10,10,10,9,3,15,0.00,2,,160
2012-11-27,46,42,37,38,34,27,85,67,49,30.26,30.19,30.14,10,10,7,8,4,12,0.02,7,Rain-Snow,27
2012-11-28,51,41,31,34,25,17,85,56,27,30.39,30.29,30.24,10,9,5,14,3,16,0.00,3,,289
2012-11-29,50,38,26,24,21,19,75,53,31,30.46,30.39,30.33,10,10,8,12,4,15,0.00,0,,191
2012-11-30,53,39,25,27,24,21,81,58,35,30.37,30.33,30.29,10,10,10,6,1,8,0.00,0,,12